Regional Weather Roundup
Issued by NWS

Home | Current Version | Previous Version | Graphics & Text | Print | Product List | Glossary Off
Versions: 1 2 3 4 5 6 7 8 9 10 11 12 13 14 15 16 17 18 19 20 21 22 23 24 25 26 27 28 29 30 31 32 33 34 35 36 37 38 39 40 41 42 43 44 45 46 47 48 49 50

109
ASUS43 KMKX 292300
RWRWI

WISCONSIN REGIONAL WEATHER ROUNDUP
NATIONAL WEATHER SERVICE MILWAUKEE/SULLIVAN WI
600 PM CDT FRI APR 29 2016

NOTE: "FAIR" INDICATES FEW OR NO CLOUDS BELOW 12,000 FEET WITH NO
SIGNIFICANT WEATHER AND/OR OBSTRUCTIONS TO VISIBILITY.

WIZ001-002-006>008-014>016-023>028-300000-
NORTHWEST WISCONSIN

CITY           SKY/WX    TMP DP  RH WIND       PRES   REMARKS
SUPERIOR ARPT  SUNNY     46  32  58 E10       30.19R
ASHLAND        SUNNY     50  32  50 E10       30.20R
HAYWARD        SUNNY     55  30  38 N17       30.14R
SIREN          MOSUNNY   60  29  32 NE9G17    30.11S
CUMBERLAND     SUNNY     57  30  35 CALM      30.10S
RICE LAKE      PTSUNNY   60  29  31 N5        30.11S
CHETEK         MOSUNNY   58  37  44 CALM      30.10S
LADYSMITH      CLOUDY    60  32  35 CALM      30.11S
EAU CLAIRE     NOT AVBL
MENOMONIE      MOSUNNY   61  41  47 SE3       30.12R
NEW RICHMOND   MOSUNNY   59  32  35 NE9       30.11S
OSCEOLA        SUNNY     60  32  34 SE6       30.13F
$$

WIZ003>005-009-010-017-018-300000-
NORTH CENTRAL WISCONSIN

CITY           SKY/WX    TMP DP  RH WIND       PRES   REMARKS
MANITOWISH WTR CLOUDY    56  32  40 NE9       30.11R
ARBOR VITAE    CLOUDY    57  34  42 SE6       30.12R
WOODRUFF       CLOUDY    57  34  42 SE6       30.12R
RHINELANDER    SUNNY     55  29  36 N5        30.11F
EAGLE RIVER    CLOUDY    55  27  34 N3        30.12R
LAND O LAKES   CLOUDY    55  28  34 CALM      30.13R
PHILLIPS       CLOUDY    56  34  43 SE7       30.09S
TOMAHAWK       CLOUDY    55  33  43 CALM      30.12R
MEDFORD        CLOUDY    52  39  60 S6        30.11R
MERRILL        CLOUDY    55  34  44 CALM      30.12R
$$

WIZ029-030-035-036-043>047-300000-
CENTRAL WISCONSIN

CITY           SKY/WX    TMP DP  RH WIND       PRES   REMARKS
WAUSAU         MOSUNNY   57  32  38 SE5       30.10R
MOSINEE        PTSUNNY   54  34  47 E6        30.13R
MARSHFIELD     MOSUNNY   55  35  47 CALM      30.11R
STEVENS POINT  CLOUDY    54  34  46 E10       30.12S
WAUPACA        SUNNY     57  31  37 E8        30.13S
WAUTOMA        SUNNY     56  34  43 E8        30.12R
WISC RAPIDS    MOSUNNY   57  33  40 E7        30.12S
CAMP DOUGLAS   NOT AVBL
$$

WIZ011>013-019>022-031-037>040-048>050-300000-
NORTHEAST WISCONSIN

CITY           SKY/WX    TMP DP  RH WIND       PRES   REMARKS
ANTIGO         CLOUDY    55  32  41 CALM      30.11S
SHAWANO        CLOUDY    56  32  40 E7        30.14S
OCONTO         MOSUNNY   52  27  38 SE3       30.14R
STURGEON BAY   SUNNY     52  28  40 N5        30.17R
GREEN BAY      SUNNY     55  33  43 NE9       30.14R
MANITOWOC      NOT AVBL
APPLETON       NOT AVBL
CLINTONVILLE   MOSUNNY   52  32  46 E5        30.13R
OSHKOSH        SUNNY     54  32  43 NE7       30.13R
$$

WIZ032>034-041-042-053>061-300000-
SOUTHWEST WISCONSIN

CITY           SKY/WX    TMP DP  RH WIND       PRES   REMARKS
LA CROSSE      CLOUDY    53  38  56 E6        30.12R
SPARTA         CLOUDY    53  39  58 CALM      30.12S
VIROQUA        CLOUDY    49  38  63 E6        30.11F
BOSCOBEL       CLOUDY    53  38  56 VRB3      30.12S
PRAIRIE DU CHI CLOUDY    51  36  57 NE5       30.11F
PLATTEVILLE    CLOUDY    49  41  73 NE6       30.11R
$$

WIZ056-057-062-063-064-067-068-300000-
SOUTH CENTRAL WISCONSIN

CITY           SKY/WX    TMP DP  RH WIND       PRES   REMARKS
REEDSBURG      CLOUDY    53  37  55 E5        30.10S
BARABOO/DELLS  CLOUDY    53  35  51 SE6       30.11R
LONE ROCK      NOT AVBL
MINERAL POINT  PTSUNNY   52  39  62 NE8       30.09F
MADISON        PTSUNNY   51  38  60 CALM      30.11F
MIDDLETON      CLOUDY    51  38  62 SE6       30.12S
WATERTOWN      CLOUDY    52  36  54 E8        30.11R
MONROE         CLOUDY    46  39  76 NE8       30.10S
JANESVILLE     MOSUNNY   52  39  62 NE6       30.10S
$$

WIZ051-052-058>065-066-070>072-300000-
SOUTHEAST WISCONSIN

CITY           SKY/WX    TMP DP  RH WIND       PRES   REMARKS
MILWAUKEE      PTSUNNY   44  36  73 NE7       30.14S
WAUKESHA       CLOUDY    45  36  70 NE9       30.14R
MILWAUKEE/TIMM SUNNY     46  34  61 SE3       30.14S
RACINE         CLOUDY    44  35  70 NE9       30.16R
BURLINGTON     CLOUDY    47  37  67 NE9       30.12S
KENOSHA        CLOUDY    47  38  71 NE9       30.13S
FOND DU LAC    SUNNY     55  33  43 NE9       30.13R
SHEBOYGAN      SUNNY     50  30  46 E9        30.15R
WEST BEND      PTSUNNY   50  32  50 E7        30.14R
JUNEAU         CLOUDY    53  35  50 E8        30.12R
$$

LSZ147-162-300000-
LAKE SUPERIOR

STATION/POSITION TIME  TEMP    WIND        PRES    WAVE
                       AIR SEA DIR/SP/G            HT/PER
                 (UTC) (F)     (DEG/KT/KT) (MB)    (FT/S)
W MID LAKE BUOY  2150   38 37  330/  6/  8 1023.3F   1
DEVILS ISLAND    2200   38      70/  6/  7 1023.6R
SAXON HARBOR     2240   41      10/  3/  4 1022.4R
$$

LMZ867-665-643>646-300000-
LAKE MICHIGAN

STATION/POSITION TIME  TEMP    WIND        PRES    WAVE
                       AIR SEA DIR/SP/G            HT/PER
                 (UTC) (F)     (DEG/KT/KT) (MB)    (FT/S)
CHAMBERS ISLAND  2200   52     360/  1/  2 1021.0R
N MID LAKE BUOY  2150   40 39  340/  4/  6 1019.9F   0
NORTHPORT PIER   2200   49     150/  3/  3 1020.3R
ALGOMA LAKESHORE 2200           80/ 14/ 15   N/A
KEWAUNEE LAKESHO 2200   45                 1019.8R
SHEBOYGAN LAKESH 2200   41      30/  5/  6 1021.4R
PORT WASHINGTON  2200   44      90/  3/  4 1021.3
S MID LAKE BUOY  2150   40 40  360/ 10/ 12 1020.4R   1/ 4
KENOSHA   LAKESH 2200   41      40/ 10/ 12 1020.3F
$$

TC  - TEMPERATURE IN CELSIUS
VSB - VISIBILITY IN STATUTE MILES
WCI - WIND CHILL INDEX
HX  - HEAT INDEX





USA.gov is the U.S. government's official web portal to all federal, state and local government web resources and services.